STARLINK-4710, 53799

Orbit data source: Space-Track

STARLINK-4710, 53799 is a payload satellite owned by SpaceX/Seattle (US) in LEO that was launched on Sun, 11 Sep 2022 UTC via an FALCON 9 launch vehicle from the Air Force Eastern Test Range (AFETR). Payload-class satellites include a variety of spacecraft equipped with specific instruments for various scientific and technological missions. These include communications satellites like Starlink; space stations such as the ISS; scientific satellites like the Hubble; Earth observation satellites from companies like Planet Labs, Umbra, and HawkEye 360; GPS; miniature CubeSats for education and research; and military/defense satellites.

Loading next visibility...
Identifier
53799, 2022-111AC
Orbit
LEO
Country
Flag of USUS
Related business
Manufacturer
SpaceX/Seattle
Mission
Operational Commercial Communications
Bus & Motor
STARLINK, Unknown motor
Mass
305 kg wet, ~290 kg dry
Launch date (UTC)
2022-09-11 (3 years ago)
Launch vehicle
FALCON 9
Launch site
Air Force Eastern Test Range (AFETR)
Object type
Payload
Rocket body
Debris
Shape & HBR
Box + 1 Pan, 10.1 m
Radar Cross Section
13.562 m², Large (>1 m²)

Expand to show TLE details & history
Last TLE update: 16 hours ago

TLE from 16 hours ago
0 STARLINK-4710
1 53799U 22111AC  25310.80306069  .00001054  00000-0  84249-4 0  9994
2 53799  53.2168  95.8485 0001106  84.0607 276.0511 15.08847620175266
Epoch: 2025-11-06T19:16Z
TLE epoch observation values (Epoch: 2025-11-06T19:16:24.443Z)
Latitude
-0.00004°
Longitude
120.49048°
Altitude
540.537 km
Speed
7.593 km/s
True Right ascension
06h 23m 23s
True Declination
0° 00' 00"
Sunlit
Object was in full shadow at epoch
Visualization orbit readout
Latitude
Unknown
Longitude
Unknown
Altitude
Unknown
Speed
Unknown
Apparent Right ascension
Unknown
Apparent Declination
Unknown
Sunlit
N/A
Visualization observer readout
Local Sidereal Time
07:49:42
Azimuth
Unknown
Elevation
Unknown
Doppler factor
Unknown
Orbital elements
Apogee altitude
540.73 km
Perigee altitude
539.2 km
Semi-major axis
6,918.102 km
Eccentricity
0.00011
Inclination
53.2168°
RAAN
95.8485°
Arg. of periapsis
84.0607°
True anomaly
276.0385°
Mean anomaly
276.0511°
Eccentric anomaly
276.0448°
Mean motion
3.77192 °/min
Orbital period
95.44 mins
BSTAR
0.000084249
Loading maneuver chart data...
Computing Atmospheric mass density...
Loading historical data...
Loading historical data...
Loading historical data...
Loading historical data...
Loading historical data...
Loading historical data...
Loading historical data...

Documentation

Showing up to 5 results
|